When you browse on this site, cookies collect data to enhance your experience and personalize the content and advertising you see.
Visit our Privacy Policy to learn more. By continuing to use the site, you agree to this use of cookies and data.
  • In Hungary
  • List of Countries
  • For 7 days
  • Water Temperature
  • Satellite Maps
  • Weather Map
  • News
  • Weather Widgets
  • user-avatar
    Login

    Hourly Weather Oleśnica

    Today, 25 June, Tuesday

    Time Temperature Precipitation Wind Pressure Humidity
    00:00 +19°C° 0 mm 2 mps 754 mmHg 79%
    01:00 +18°C° 0 mm 3 mps 754 mmHg 85%
    02:00 +18°C° 0 mm 2 mps 754 mmHg 87%
    03:00 +18°C° 0 mm 2 mps 754 mmHg 89%
    04:00 +17°C° 0 mm 2 mps 754 mmHg 91%
    05:00 +19°C° 0 mm 3 mps 754 mmHg 87%
    06:00 +21°C° 0 mm 3 mps 754 mmHg 82%
    07:00 +24°C° 0 mm 3 mps 755 mmHg 76%
    08:00 +25°C° 0 mm 4 mps 755 mmHg 72%
    09:00 +27°C° 0 mm 4 mps 754 mmHg 68%
    10:00 +28°C° 0 mm 4 mps 754 mmHg 64%
    11:00 +29°C° 0 mm 4 mps 754 mmHg 60%
    12:00 +30°C° 0 mm 4 mps 754 mmHg 56%
    13:00 +33°C° 0 mm 3 mps 754 mmHg 52%
    14:00 +33°C° 0 mm 3 mps 754 mmHg 52%
    15:00 +33°C° 0 mm 3 mps 754 mmHg 51%
    16:00 +33°C° 0 mm 3 mps 753 mmHg 51%
    17:00 +31°C° 0 mm 3 mps 753 mmHg 56%
    18:00 +30°C° 0 mm 2 mps 753 mmHg 62%
    19:00 +29°C° 0 mm 1 mps 753 mmHg 67%
    20:00 +28°C° 0 mm 1 mps 753 mmHg 70%
    21:00 +26°C° 0 mm 2 mps 753 mmHg 73%
    22:00 +25°C° 0 mm 2 mps 753 mmHg 77%
    23:00 +24°C° 0 mm 2 mps 753 mmHg 78%

    Tomorrow, 26 June, Wednesday

    Time Temperature Precipitation Wind Pressure Humidity
    00:00 +24°C° 0 mm 2 mps 754 mmHg 80%
    01:00 +23°C° 0 mm 2 mps 754 mmHg 82%
    02:00 +23°C° 0 mm 2 mps 753 mmHg 83%
    03:00 +21°C° 0 mm 2 mps 753 mmHg 83%
    04:00 +21°C° 0 mm 2 mps 753 mmHg 84%
    05:00 +24°C° 0 mm 2 mps 753 mmHg 80%
    06:00 +25°C° 0 mm 3 mps 753 mmHg 76%
    07:00 +27°C° 0 mm 3 mps 753 mmHg 72%
    08:00 +28°C° 0 mm 4 mps 753 mmHg 67%
    09:00 +30°C° 0 mm 4 mps 753 mmHg 62%
    10:00 +32°C° 0 mm 5 mps 752 mmHg 57%
    11:00 +33°C° 0 mm 5 mps 752 mmHg 55%
    12:00 +34°C° 0 mm 4 mps 752 mmHg 52%
    13:00 +35°C° 0 mm 4 mps 752 mmHg 49%
    14:00 +35°C° 0 mm 5 mps 751 mmHg 49%
    15:00 +35°C° 0 mm 5 mps 751 mmHg 49%
    16:00 +35°C° 0 mm 5 mps 750 mmHg 49%
    17:00 +34°C° 0 mm 4 mps 750 mmHg 55%
    18:00 +33°C° 0 mm 4 mps 750 mmHg 61%
    19:00 +30°C° 0 mm 3 mps 750 mmHg 66%
    20:00 +29°C° 0.3 mm 4 mps 750 mmHg 69%
    21:00 +28°C° 0.3 mm 4 mps 750 mmHg 72%
    22:00 +27°C° 0.3 mm 4 mps 750 mmHg 75%
    23:00 +26°C° 0.2 mm 4 mps 750 mmHg 80%

    Day after tomorrow, 27 June, Thursday

    Time Temperature Precipitation Wind Pressure Humidity
    00:00 +25°C° 0.2 mm 4 mps 750 mmHg 84%
    01:00 +22°C° 0.2 mm 4 mps 750 mmHg 89%
    02:00 +22°C° 0 mm 4 mps 750 mmHg 90%
    03:00 +21°C° 0 mm 4 mps 750 mmHg 91%
    04:00 +20°C° 0 mm 4 mps 750 mmHg 92%
    05:00 +20°C° 0 mm 5 mps 750 mmHg 89%
    06:00 +20°C° 0 mm 5 mps 750 mmHg 86%
    07:00 +20°C° 0 mm 6 mps 751 mmHg 83%
    08:00 +21°C° 0 mm 6 mps 751 mmHg 74%
    09:00 +21°C° 0 mm 6 mps 751 mmHg 65%
    10:00 +22°C° 0 mm 7 mps 751 mmHg 57%
    11:00 +23°C° 0 mm 7 mps 751 mmHg 51%
    12:00 +23°C° 0 mm 7 mps 751 mmHg 46%
    13:00 +24°C° 0 mm 7 mps 751 mmHg 40%
    14:00 +24°C° 0 mm 7 mps 751 mmHg 43%
    15:00 +24°C° 0 mm 7 mps 750 mmHg 45%
    16:00 +24°C° 0 mm 7 mps 750 mmHg 47%
    17:00 +23°C° 0 mm 6 mps 750 mmHg 54%
    18:00 +22°C° 0 mm 5 mps 750 mmHg 61%
    19:00 +21°C° 0 mm 4 mps 750 mmHg 68%
    20:00 +20°C° 0 mm 4 mps 750 mmHg 71%
    21:00 +18°C° 0 mm 4 mps 751 mmHg 74%
    22:00 +17°C° 0 mm 4 mps 751 mmHg 78%
    23:00 +17°C° 0 mm 3 mps 751 mmHg 83%

    28 June, Friday

    Time Temperature Precipitation Wind Pressure Humidity
    00:00 +16°C° 0 mm 3 mps 751 mmHg 88%
    01:00 +14°C° 0 mm 3 mps 751 mmHg 93%
    02:00 +14°C° 0 mm 3 mps 751 mmHg 94%
    03:00 +14°C° 0 mm 3 mps 751 mmHg 95%
    04:00 +14°C° 0 mm 3 mps 751 mmHg 96%
    05:00 +16°C° 0.1 mm 3 mps 751 mmHg 92%
    06:00 +17°C° 0.1 mm 4 mps 751 mmHg 88%
    07:00 +18°C° 0.1 mm 4 mps 751 mmHg 84%
    08:00 +19°C° 0.5 mm 4 mps 751 mmHg 81%
    09:00 +19°C° 0.5 mm 4 mps 751 mmHg 79%
    10:00 +20°C° 0.5 mm 5 mps 751 mmHg 76%
    11:00 +21°C° 0.4 mm 5 mps 751 mmHg 71%
    12:00 +22°C° 0.4 mm 5 mps 751 mmHg 65%
    13:00 +23°C° 0.4 mm 5 mps 751 mmHg 60%
    14:00 +25°C° 0.2 mm 5 mps 751 mmHg 58%
    15:00 +24°C° 0.2 mm 6 mps 751 mmHg 56%
    16:00 +24°C° 0.2 mm 6 mps 751 mmHg 54%
    17:00 +23°C° 0 mm 5 mps 751 mmHg 58%
    18:00 +22°C° 0 mm 4 mps 751 mmHg 61%
    19:00 +21°C° 0 mm 4 mps 751 mmHg 65%
    20:00 +19°C° 0 mm 4 mps 752 mmHg 65%
    21:00 +17°C° 0 mm 3 mps 752 mmHg 65%
    22:00 +14°C° 0 mm 3 mps 752 mmHg 65%
    23:00 +15°C° 0 mm 2 mps 752 mmHg 69%

    29 June, Saturday

    Time Temperature Precipitation Wind Pressure Humidity
    00:00 +14°C° 0 mm 2 mps 753 mmHg 74%
    01:00 +13°C° 0 mm 1 mps 753 mmHg 78%
    02:00 +13°C° 0 mm 1 mps 753 mmHg 78%
    03:00 +12°C° 0 mm 1 mps 753 mmHg 78%
    04:00 +12°C° 0 mm 1 mps 753 mmHg 78%
    05:00 +14°C° 0 mm 1 mps 753 mmHg 73%
    06:00 +16°C° 0 mm 1 mps 753 mmHg 68%
    07:00 +17°C° 0 mm 2 mps 753 mmHg 64%
    08:00 +19°C° 0 mm 2 mps 753 mmHg 58%
    09:00 +21°C° 0 mm 2 mps 753 mmHg 52%
    10:00 +23°C° 0 mm 2 mps 753 mmHg 46%
    11:00 +24°C° 0 mm 2 mps 753 mmHg 44%
    12:00 +25°C° 0 mm 2 mps 752 mmHg 42%
    13:00 +26°C° 0 mm 2 mps 752 mmHg 40%
    14:00 +26°C° 0 mm 1 mps 751 mmHg 40%
    15:00 +26°C° 0 mm 1 mps 751 mmHg 40%
    16:00 +26°C° 0 mm 1 mps 751 mmHg 39%
    17:00 +25°C° 0 mm 1 mps 751 mmHg 46%
    18:00 +24°C° 0 mm 1 mps 750 mmHg 52%
    19:00 +23°C° 0 mm 1 mps 750 mmHg 58%
    20:00 +21°C° 0 mm 2 mps 750 mmHg 60%
    21:00 +19°C° 0 mm 2 mps 750 mmHg 61%
    22:00 +18°C° 0 mm 2 mps 750 mmHg 62%
    23:00 +17°C° 0 mm 2 mps 750 mmHg 64%

    30 June, Sunday

    Time Temperature Precipitation Wind Pressure Humidity
    00:00 +17°C° 0 mm 2 mps 750 mmHg 65%
    01:00 +16°C° 0 mm 2 mps 750 mmHg 67%
    02:00 +16°C° 0 mm 2 mps 750 mmHg 70%
    03:00 +16°C° 0 mm 2 mps 750 mmHg 73%
    04:00 +15°C° 0 mm 2 mps 749 mmHg 76%
    05:00 +17°C° 0 mm 3 mps 749 mmHg 73%
    06:00 +19°C° 0 mm 3 mps 749 mmHg 69%
    07:00 +21°C° 0 mm 3 mps 749 mmHg 66%
    08:00 +24°C° 0 mm 3 mps 749 mmHg 60%
    09:00 +26°C° 0 mm 4 mps 749 mmHg 54%
    10:00 +27°C° 0 mm 4 mps 749 mmHg 47%
    11:00 +28°C° 0 mm 4 mps 748 mmHg 46%
    12:00 +29°C° 0 mm 5 mps 748 mmHg 44%
    13:00 +30°C° 0 mm 5 mps 747 mmHg 42%
    14:00 +30°C° 0 mm 5 mps 747 mmHg 43%
    15:00 +32°C° 0 mm 5 mps 747 mmHg 44%
    16:00 +32°C° 0 mm 6 mps 746 mmHg 46%
    17:00 +29°C° 0 mm 5 mps 746 mmHg 52%
    18:00 +28°C° 0 mm 5 mps 746 mmHg 59%
    19:00 +27°C° 0 mm 5 mps 745 mmHg 66%
    20:00 +25°C° 0 mm 4 mps 746 mmHg 70%
    21:00 +23°C° 0 mm 4 mps 746 mmHg 73%
    22:00 +22°C° 0 mm 4 mps 746 mmHg 77%
    23:00 +21°C° 0 mm 3 mps 746 mmHg 78%
    Show more